Preview of NWS' New Version of Forecast
This preview is not operational and should not be used for support decisions.

Regional Weather Roundup (RWR)

Issued by National Weather Service (NWS)

                            
000
ASUS43 KDMX 251306
RWRIA 

WEATHER ROUNDUP FOR IOWA
NATIONAL WEATHER SERVICE DES MOINES IA
800 AM CDT TUE JUN 25 2019

NOTE: "FAIR" INDICATES FEW OR NO CLOUDS BELOW 12,000 FEET WITH NO
SIGNIFICANT WEATHER AND/OR OBSTRUCTIONS TO VISIBILITY.

* - THESE STATIONS ARE NOT NWS STATIONS...THUS NOT UNDER NWS
QUALITY CONTROL.  THEY ALSO DO NOT REPORT WEATHER SUCH 
AS PRECIPITATION OR FOG.  

IAZ001>003-012>014-020>022-031>034-043>046-251400-
   NORTHWEST IOWA
  
CITY           SKY/WX    TMP DP  RH WIND       PRES   REMARKS
CARROLL *      SUNNY     64  61  88 SW9       29.79R                  
CHEROKEE *     SUNNY     64  62  93 CALM      29.82S                  
DENISON *      SUNNY     63  63 100 VRB5      29.85R                  
LE MARS *      SUNNY     64  63  94 CALM      29.83R                  
SHELDON *      SUNNY     63  63 100 W8        29.81R                  
SIOUX CITY     SUNNY     65  61  87 NW6       29.83R                  
SPENCER        SUNNY     68  59  73 W9        29.81R                  
STORM LAKE *   SUNNY     63  63 100 W7        29.79R                  
$$
 
IAZ055>058-069>071-079>083-090>094-251400-
   SOUTHWEST IOWA
  
CITY           SKY/WX    TMP DP  RH WIND       PRES   REMARKS
ATLANTIC *     SUNNY     66  66 100 NW7       29.84R                  
AUDUBON *      SUNNY     64  61  88 CALM      29.85R                  
CLARINDA *     SUNNY     70  64  83 SW9       29.87S                  
COUNCIL BLFS * SUNNY     66  66 100 CALM      29.84R                  
CRESTON *      SUNNY     64  61  88 S12       29.84F                  
HARLAN  *      SUNNY     66  63  88 SW8       29.84S                  
LAMONI         SUNNY     68  60  75 SW13G21   29.89R                  
RED OAK *      SUNNY     68  64  88 CALM      29.85R                  
SHENANDOAH *   SUNNY     70  64  83 SW7       29.85R                  
$$
 
IAZ047>049-059>061-072>074-084-251400-
   CENTRAL IOWA
  
CITY           SKY/WX    TMP DP  RH WIND       PRES   REMARKS
AMES           LGT RAIN  67  60  78 SE9       29.76F                  
ANKENY *       MOSUNNY   68  59  73 SE6       29.81F                  
BOONE *        MOSUNNY   68  66  94 SE5       29.77F                  
CHARITON *     SUNNY     70  63  78 SW9       29.87S                  
DES MOINES     LGT RAIN  69  59  70 SE10      29.78F                  
GRINNELL*      SUNNY     67  61  80 W9        29.87R                  
KNOXVILLE *    MOSUNNY   72  61  68 SW14      29.86R                  
MARSHALLTOWN   SUNNY     67  62  84 SW8       29.81F                  
NEWTON *       SUNNY     68  63  83 W3        29.84F                  
PELLA *        SUNNY     72  60  65 SW7       29.86S                  
$$
 
IAZ004>006-015-016-023>025-035-036-251400-
   NORTH CENTRAL IOWA
  
CITY           SKY/WX    TMP DP  RH WIND       PRES   REMARKS
ALGONA *       MOSUNNY   64  63  94 W8        29.78F                  
CLARION *      SUNNY     64  61  88 SW6       29.78F                  
ESTHERVILLE    SUNNY     66  57  72 W14       29.79R                  
FORT DODGE *   SUNNY     62  61  96 N3        29.78F                  
MASON CITY     PTSUNNY   66  58  75 SW17      29.81R                  
FOREST CITY *  FAIR      66  61  82 SW9       29.80R                  
IOWA FALLS *   PTSUNNY   66  60  81 W17       29.82F                  
$$

IAZ007>011-017>019-026>030-037>042-050>054-066-251400-
   NORTHEAST IOWA
  
CITY           SKY/WX    TMP DP  RH WIND       PRES   REMARKS
CEDAR RAPIDS   FAIR      68  60  75 SW12      29.83F                  
CHARLES CITY * PTSUNNY   68  59  73 SW9       29.80S                  
CLINTON *      FAIR      71  63  75 SW7       29.88R                  
DECORAH *      FAIR      66  59  77 SW7G14    29.78R                  
DUBUQUE        FAIR      66  61  84 SW7       29.84S                  
MONTICELLO *   FAIR      68  64  88 W8        29.86R                  
OELWEIN *      FAIR      66  63  88 SW10      29.82S                  
WATERLOO       FAIR      71  59  65 SW9       29.80S                  
$$
 
IAZ064-065-067-068-078-251400-
   EAST CENTRAL IOWA
  
CITY           SKY/WX    TMP DP  RH WIND       PRES   REMARKS
DAVENPORT      FAIR      71  60  68 SW9       29.88S                  
IOWA CITY      FAIR      70  60  70 SW8       29.86S                  
MT. PLEASANT * SUNNY     72  63  73 SW12      29.89S                  
MUSCATINE *    FAIR      72  61  68 SW8G16    29.87R                  
QUAD CITIES    FAIR      73  60  63 SW8       29.87R                  
$$
 
IAZ062-063-075>077-085>089-095>099-251400-
   SOUTHEAST IOWA
  
CITY           SKY/WX    TMP DP  RH WIND       PRES   REMARKS
BURLINGTON     SUNNY     71  61  70 MISG      29.90R                  
FAIRFIELD *    MOSUNNY   72  61  68 SW13G18   29.87S                  
FORT MADISON * SUNNY     70  63  78 S8        29.92R                  
KEOKUK *       SUNNY     68  63  83 SW10      29.92R                  
OSKALOOSA *    FAIR      70  60  70 SW8       29.85F                  
CENTERVILLE *  FAIR      70  63  78 S12G20    29.90S                  
OTTUMWA        MOSUNNY   71  60  68 SW12      29.86S                  
WASHINGTON *   SUNNY     70  70 100 SW13      29.85F                  
$$

ABBREVIATIONS USED IN REMARKS
   TC - TEMPERATURES IN CELSIUS
  WCI - WIND CHILL INDEX
   HX - HEAT INDEX
  VSB - VISIBILITY  
$$